Forum


Ask a question

No. FLOSS Question Date
Views
Answers
1 eSim WIndows installation 2015-09-22 07:36:13.000000 1571 3
2 eSim Your schematic contain unknown model tl072 2015-09-22 12:37:06.000000 1385 1
3 eSim your schematic contains an unknown component vplot8_1 2015-09-26 13:03:37.000000 1712 1
4 eSim APR33A3 2015-10-08 17:45:51.000000 1191 1
5 eSim Error while opening python plotting editor. 2015-10-14 05:44:47.000000 1294 2
6 eSim Installation with Windows 2015-10-15 10:11:24.000000 1388 2
7 eSim To measure and plot the branch current. 2015-10-16 11:16:30.000000 1223 1
8 eSim Measurement of resistance in eSim. 2015-10-18 04:32:46.000000 1065 1
9 eSim how to measure resistance 2015-10-21 10:04:49.000000 1115 1
10 eSim Problem regarding current direction. 2015-10-21 10:09:50.000000 1151 1
11 eSim How to plot voltage Vs current through a diode (Diode chara.) 2015-10-23 05:51:16.000000 1807 4
12 eSim unable to create project 2015-10-23 18:51:20.000000 1969 2
13 eSim Esim Not supported in Windows10-Reg 2015-10-24 04:20:12.000000 1287 1
14 eSim unable to open esim source to place sine wave 2015-10-25 16:35:17.000000 1225 2
15 eSim Conduction of workshop regarding 2015-10-31 06:16:04.000000 1158 2
16 eSim unable to add LM741 subcircuit 2015-11-04 04:56:07.000000 1445 2
17 eSim Regarding IN/OUT pin configuration 2015-11-06 07:05:39.000000 1317 2
18 eSim I am unable to Install eSim software. 2015-11-25 08:33:14.000000 1379 1
19 eSim Right pane of footprint editor is empty 2015-11-25 09:59:39.000000 1337 1
20 eSim about istallation on ubuntu 2016-01-11 14:23:18.000000 1192 1
21 eSim Error while openinf python plotting Editor 2016-01-18 04:29:12.000000 1299 2
22 eSim Simulation of basic logic gates 2016-01-18 07:48:10.000000 1848 3
23 eSim Simulation of basic logic gates 2016-01-18 07:51:45.000000 1187 1
24 eSim Getting errors when simulating the basic logic gates 2016-01-18 07:53:28.000000 1254 1
25 eSim unable to install e sim on linux 2016-01-18 09:58:12.000000 1289 1
26 eSim unable to install e sim on linux 2016-01-18 09:58:33.000000 1211 1
27 eSim lab migration programe 2016-01-29 10:41:49.000000 1195 1
28 eSim Error while opening python plotting Editor. 2016-02-05 06:40:19.000000 1406 4
29 eSim Unable to run the simulation 2016-02-09 08:23:39.000000 1342 4
30 eSim Regarding footprint 2016-02-25 09:38:04.000000 1146 3
31 eSim Unable to get details of source 2016-03-01 03:42:01.000000 1361 5
32 eSim Testing Forum Reply 2016-03-01 12:21:53.000000 1306 11
33 eSim Installation error 2016-03-10 07:19:37.000000 1750 1
34 eSim Enable to find AC voltage source 2016-03-15 03:05:40.000000 2761 2
35 eSim Impossibilité de créer un subcircuit. 2016-03-22 10:00:38.000000 1143 3
36 eSim Impossibilité de créer un subcircuit. 2016-03-22 10:03:17.000000 1199 1
37 eSim unable to simulate dc power supply 2016-03-23 05:54:28.000000 1153 1
38 eSim eSim Eeschema Diode component problem. 2016-03-23 21:19:19.000000 1389 1
39 eSim incorect ac simulaton 2016-03-29 00:40:00.000000 1154 1
40 eSim scilab contourf plot axis scaling 2016-04-06 09:07:53.000000 1285 1
41 eSim problem in creating project 2016-04-23 04:02:06.000000 1239 1
42 eSim Problem in getting started with eSim 2016-05-06 11:46:13.000000 1340 2
43 eSim esim training on skype 2016-05-31 04:07:35.000000 1093 1
44 eSim undetaking form 2016-05-31 04:34:19.000000 1082 1
45 eSim eSim not working in windows 10 2016-06-05 18:59:39.000000 1268 1
46 eSim installation reg 2016-06-24 06:54:50.000000 1173 1
47 eSim python plotting window does not open up (On latest build of eSim) 2016-06-26 14:27:57.000000 1325 3
48 eSim regarding Lab migration project 2016-07-09 03:20:40.000000 1075 1
49 eSim Execution reg 2016-07-11 07:10:37.000000 1121 3
50 eSim execution error reg 2016-07-13 10:10:00.000000 1093 1
51 eSim Injecting noise 2016-07-16 06:42:08.000000 1178 1
52 eSim Unable to install eSim on Ubuntu 2016-07-19 09:53:03.000000 1201 1
53 eSim error while opening python plotting error 2016-07-21 11:00:57.000000 1156 1
54 eSim DC Analysis _reg 2016-08-04 06:36:23.000000 1168 2
55 eSim Run setup 2016-08-07 18:46:47.000000 1675 1
56 eSim dc analysis reg 2016-08-18 05:01:23.000000 870 1
57 eSim Simulation not working 2016-09-29 04:35:44.000000 925 1
58 eSim Simulation not working. Error while opening phyton plotting editor 2016-09-29 04:37:06.000000 973 1
59 eSim eSim on BOSS Linux (anoop) 2016-11-14 17:27:07.000000 906 1
60 eSim Not getting the correct Python plot 2016-11-18 06:25:00.000000 959 1
61 eSim Nor getting coorrect output for a clamper circuit 2016-11-23 05:53:53.000000 1021 1
62 eSim not fetting correct result 2016-11-24 10:03:36.000000 861 1
63 eSim not getting frequency response 2016-11-26 07:19:55.000000 879 1
64 eSim Query Related Esim 2017-02-24 04:17:30.000000 835 1
65 eSim SOFTWARE IS NOT WORKING 2017-03-17 08:08:59.000000 980 1
66 eSim Warning at starting eSim and error at calling ngspice 2017-03-21 17:48:35.000000 891 1
67 eSim ngspice not running in eSim 2017-03-22 17:07:24.000000 945 4
68 eSim Error trying to create schematic (Ubuntu running under Win10) 2017-03-24 16:16:40.000000 2451 6
69 eSim Passing option to ngspice 2017-05-15 10:49:52.000000 827 2
70 eSim eSim ibraries missing 2017-05-20 14:12:55.000000 775 1
71 eSim Can't install eSim 1.1.2 on Ubuntu 16 2017-06-11 18:44:53.000000 907 3
72 eSim UNABLE TO INSTALL IN UBUNTU16.04 LTS 2017-06-28 18:14:56.000000 850 1
73 eSim Unable to map footprints 2017-07-04 06:30:38.000000 846 2
74 eSim Unable to load footprints while opening CvPcb 2017-07-05 04:20:43.000000 1224 2
75 eSim hai friends caan any one resolve the problem attached in images? 2017-08-05 11:02:24.000000 769 1
76 eSim Proposal Form for circuit simulation project. 2017-10-09 13:49:44.000000 1406 1
77 eSim where can i find a 3-phase ac source. 2017-10-10 16:01:36.000000 768 1
78 eSim proposal form 2017-10-11 04:40:06.000000 822 1
79 eSim proiect name error 2017-10-18 12:55:44.000000 767 1
80 eSim Launching esim on my pc. 2017-10-18 16:07:01.000000 694 5
81 eSim how to simulate 555 timer based astable multivibrator with esim? 2017-10-19 07:41:41.000000 1108 2
82 eSim Components not Available 2017-10-20 07:19:04.000000 790 1
83 eSim last date for circuit simulation 2017-10-23 14:01:49.000000 781 1
84 eSim CIRCUIT SIMULATION PROPOSAL FORM SUBMIT ERROR 2017-10-24 13:59:31.000000 867 2
85 eSim abstract submission 2017-10-28 10:58:35.000000 772 1
86 eSim error while simulating the schematic. 2017-11-01 19:47:11.000000 817 2
87 eSim 'plot_data_i.txt' and 'plot_data_v.txt' files cannot be created. why is this happening? 2017-11-04 04:57:17.000000 893 3
88 eSim error in ERC 2017-11-06 16:55:19.000000 820 7
89 eSim finding input signal 2017-11-06 17:50:46.000000 780 1
90 eSim Circuit Rules check error in Gnd 2017-11-07 15:24:50.000000 741 1
91 eSim error while using thyristor. 2017-11-08 20:36:20.000000 823 2
92 eSim steps to do after getting an approved mail 2017-11-11 14:39:29.000000 690 1
93 eSim Problem in opening the schematic window after double clicking the esim icon. 2017-11-15 09:52:47.000000 937 4
94 eSim conversion error, unknown component 2017-12-02 10:53:53.000000 851 3
95 eSim unable to use eSim sources 2017-12-09 16:17:43.000000 923 2
96 eSim graphical error 2017-12-12 13:15:48.000000 708 2
97 eSim esim installation problem 2017-12-13 16:46:50.000000 1556 8
98 eSim python plotting error and global label error 2017-12-15 05:54:05.000000 966 1
99 eSim unable to give title of the project. 2017-12-20 04:52:15.000000 728 2
100 eSim How to work with This Software in Laptop? 2017-12-27 09:00:56.000000 712 3
101 eSim How to set a Path? 2017-12-27 09:06:42.000000 744 2
102 eSim How to give inputs to the IC's 2017-12-28 10:21:48.000000 821 1
103 eSim What exactly eSim is? 2018-01-04 06:22:52.000000 696 2
104 eSim Python Plot error 2018-01-07 13:05:38.000000 837 1
105 eSim how to open a new project? 2018-01-10 08:25:12.000000 839 1
106 eSim command not found 2018-01-14 13:56:25.000000 876 1
107 eSim no python plot 2018-01-26 06:33:01.000000 711 1
108 eSim vcc supply-reg 2018-02-04 17:14:03.000000 708 1
109 eSim Waveform generation 2018-02-05 07:47:21.000000 716 1
110 eSim Python plot error-reg 2018-02-05 10:18:31.000000 836 2
111 eSim transient analysis 2018-02-16 15:15:17.000000 806 2
112 eSim UNKNOWN MODEL-lm555n 2018-02-20 10:15:14.000000 709 1
113 eSim Non available componant 2018-02-24 05:40:03.000000 626 1
114 eSim Square wave in eSim 2018-02-27 05:35:38.000000 709 2
115 eSim Can't seem to create a new project 2018-03-01 02:53:51.000000 833 2
116 eSim simulation problem in cmos inverter 2018-03-01 03:45:05.000000 716 2
117 eSim Cannot find 'eSim_' files in the components library 2018-03-02 08:28:18.000000 686 1
118 eSim Not able to start up the schematics. 2018-03-03 14:56:01.000000 726 1
119 eSim Python plotting missing 2018-03-04 07:03:00.000000 740 1
120 eSim issue regarding number of ports 2018-03-05 12:11:56.000000 687 1
121 eSim cannot open project 2018-03-07 03:20:47.000000 913 3
122 eSim error: dos not contain any kicad netlist file for conversion 2018-03-12 06:39:52.000000 817 1
123 eSim All the components are not downloaded. 2018-03-12 14:45:30.000000 691 1
124 eSim ua741 pin details 2018-03-13 15:19:09.000000 689 2
125 eSim error with source detail 2018-03-16 13:00:14.000000 692 1
126 eSim esim source i am not able to access 2018-03-16 13:29:55.000000 736 1
127 eSim error while opening a schematic 2018-03-16 14:07:36.000000 711 1
128 eSim Error in project creation 2018-03-17 05:16:52.000000 750 1
129 eSim Unable to create a project 2018-03-17 05:58:21.000000 940 1
130 eSim Unable to load all the components in the respective libraries 2018-03-18 07:25:45.000000 659 1
131 eSim Components missing in " Choose Component " 2018-03-18 20:25:03.000000 688 1
132 eSim error while opening python plotting editor 2018-03-18 23:22:15.000000 888 1
133 eSim Why esim software is closing after few seconds after installing it 2018-03-20 14:17:04.000000 719 1
134 eSim about coding 2018-03-21 18:05:24.000000 665 1
135 eSim ERROR: Your schematic contain unknown model jfet_n_pspice 2018-03-21 19:12:26.000000 753 2
136 eSim Shows that schematic contains unknown model 2018-03-22 19:22:54.000000 707 1
137 eSim Error while opening python plotting Editor. Please look at console for more details 2018-03-23 17:20:26.000000 796 2
138 eSim How to load components library 2018-03-24 06:34:38.000000 728 1
139 eSim key error in source 2018-03-27 18:36:39.000000 720 1
140 eSim About Kicad library 2018-03-29 09:07:26.000000 706 1
141 eSim Error while plotting python plot editor. How do i rectify it? 2018-03-29 15:04:28.000000 721 1
142 eSim Your schematic contain unknown model lm317at 2018-03-31 12:10:20.000000 818 1
143 eSim problem with the analysis tab 2018-04-06 17:47:30.000000 661 1
144 eSim looking for a VCO component 2018-05-15 10:51:32.000000 598 1
145 eSim when I download eSim installer for windows Norton secrity rejects it 2018-06-03 20:59:22.000000 649 1
146 eSim question and answer list out of date? 2018-06-06 22:13:47.000000 603 1
147 eSim while opening the schematic window this error occur? 2018-08-13 13:11:48.000000 744 1
148 eSim Unable to proceed with Setup program 2018-09-30 12:25:44.000000 566 1
149 eSim Not able to open examples in esim, its showing " The system cannot find the specified file" error. files linked to python seems to be missing? Which package of python to be installed along with eSim? 2018-10-01 09:44:25.000000 656 1
150 eSim pcbnew layout straight to ngspice? 2018-10-08 17:13:50.000000 698 1
151 eSim Unable to find esim installer 2018-11-25 21:07:49.854827 595 1
152 eSim Software download 2018-11-27 23:35:33.903442 686 1
153 eSim Installation of eSim software 2018-12-06 16:37:02.115911 688 3
154 eSim Current source in eSim 2018-12-08 09:20:59.125205 593 1
155 eSim Reverse Characteristics of Diode 2018-12-08 09:23:24.456266 661 1
156 eSim simulation error 2019-01-07 11:58:39.769496 764 5
157 eSim Where is eSim windows installer available? 2019-01-08 14:46:24.944485 304 1
158 eSim Error in simulating the circuit 2019-01-11 09:00:13.599077 702 1
159 eSim Error in simulating the circuit1 2019-01-14 03:28:32.836299 603 1
160 eSim SISO Experiment 2019-01-15 09:00:51.236321 645 1
161 eSim How to change the working directory of eSim? 2019-01-30 04:25:31.368918 644 2
162 eSim Can you provide the link for eSim installation for Windows 8? 2019-02-01 07:15:50.970146 601 1
163 eSim Can not run the eSim software in Windows. 2019-02-07 08:57:39.954637 656 1
164 eSim Error while opening python plotting Editor. Please look at console for details 2019-02-24 14:29:57.973271 759 1
165 eSim IC subcircuit cannot found 2019-03-04 13:39:07.482276 537 1
166 eSim absence of component in library 2019-03-08 03:25:09.103845 547 1
167 eSim About changing the course 2019-03-09 18:19:38.743567 504 2
168 eSim unable to use esim_pspice library components 2019-03-18 06:19:21.526145 511 1
169 eSim When trying to convert kicad to ngspice it is showing "your schematic contain unknown model" 2019-05-08 11:21:31.005973 522 2
170 eSim Schematic contain unknown model "inv2x" 2019-06-01 14:32:06.625776 451 2
171 eSim installation 2019-06-12 09:52:17.417421 423 1
172 eSim I hope the Assignment 2 is attached instead of assignment 1 2019-07-02 09:04:59.946653 498 3
173 eSim Assignment is tough and after watching spoken tutorial morethan three times not able to run the project 2019-07-02 10:12:48.450580 497 3
174 eSim My RC NO.1472 2019-07-03 02:29:34.773963 409 1
175 eSim Installation of esim(Python Package issue) 2019-07-03 10:04:53.067060 374 1
176 eSim Error During Simulation of Circuit 2019-07-04 17:40:59.221919 347 1
177 eSim Error During Simulation of Circuit in eSim 2019-07-04 17:44:14.274484 390 1
178 eSim LM_741 is not available in eSim_Subckt filter 2019-07-05 04:09:39.340218 381 2
179 eSim Regarding Uploading of Assignment-RC No-1484 2019-07-06 07:39:35.918781 371 1
180 eSim Mapping components with footprints this video is not played in spoken tutorial ... 2019-07-06 11:17:00.511693 354 1
181 eSim Mapping components with footprints and also onwords all video is not playing in spoken tutorial as well as in YouTube also plz reply me 2019-07-06 11:31:26.959233 370 1
182 eSim Problem in Selection of Lm_741 2019-07-07 11:36:12.838425 375 2
183 eSim Regarding eSim Coordinator Workshop Assignment Submission 2019-07-07 15:54:01.555793 363 1
184 eSim eSim Coordinator Workshop Assignment Submission 2019-07-08 02:56:28.728548 379 2
185 eSim after generation of gerber file then save it and when i type ctr+alt+T that window not appeared so i do next step please reply ... 2019-07-08 09:08:08.750195 366 1
186 eSim Lm741 this component is not appeared under eSim_Devices so what is a solution plz reply 2019-07-08 10:28:12.692076 405 1
187 eSim While checking electrical rules it gives error at input and output label where pin not connected to some other pin but no pins to drive it 2019-07-09 10:27:12.564248 387 2
188 eSim When convert kicad to Ng it shows a window of unknown model lm_741 2019-07-09 11:43:24.718053 362 1
189 eSim Project File Name 2019-07-10 04:37:32.495360 370 1
190 eSim 1182 uploaded successfully for footprint of lm741 i follow the same with 7805 in spoken tutorial so please consider it. 2019-07-10 07:21:27.160698 349 2
191 eSim CvPCB does not read Footprints 2019-07-10 10:47:41.410520 364 1
192 eSim Payment process for eSim coordinators workshop 27 july 19 2019-07-10 16:41:05.224481 355 1
193 eSim error while opening phython plotting editor 2019-07-11 08:23:03.210599 361 1
194 eSim Regarding CvPCB 2019-07-11 11:31:48.698762 340 1
195 eSim Error while doing schematic Creation 2019-07-11 13:59:30.458689 378 1
196 eSim Couldn't able to find out the footprint for v2, v3 2019-07-12 06:14:25.662713 385 1
197 eSim regarding connection of components RC1063 2019-07-12 07:18:52.399752 333 1
198 eSim schematic of the assignment eSIM not run(RC code:1263) 2019-07-12 08:20:58.511542 322 1
199 eSim after reading netlist footprint error occur 2019-07-12 08:57:08.811366 338 1
200 eSim Error while Simulating 2019-07-12 09:04:33.002047 351 1
201 eSim Setting parameters for PCB 2019-07-12 11:45:46.507092 331 1
202 eSim Not able to select any footprint 2019-07-12 11:57:53.785859 384 1
203 eSim Foot Print Mapping 2019-07-12 13:55:07.347585 370 1
204 eSim Project Submission 2019-07-12 15:24:23.317424 367 2
205 eSim library for lm555n in CvPcb window 2019-07-13 06:04:38.752418 389 1
206 eSim Issue in eSim Project 2019-07-14 10:34:27.730328 402 1
207 eSim eSim_devices not showing at the time of schematic... 2019-07-14 17:01:58.859510 364 1
208 eSim openprojectfile() takes only a single file name 2019-07-15 10:51:38.271181 389 1
209 eSim Pin Not connected 2019-07-15 11:18:15.733130 376 1
210 eSim Schematic contains unknown model 2019-07-16 13:17:44.160412 363 1
211 eSim PLEASE EXPLAIN ABOUT THE ASSIGNMENT TITLE I NEED TO COMPLETE TODAY 2019-07-27 05:30:19.503852 353 1
212 eSim Please explain what to do with the hardware I have received 2019-07-27 05:45:57.632597 304 1
213 eSim Circuit regd 2019-07-27 06:24:24.071797 341 1
214 eSim component placement 2019-07-27 06:37:43.123363 326 1
215 eSim Connection of Global label connection 2019-07-27 06:41:46.414648 326 1
216 eSim Wire connection regd 2019-07-27 06:46:00.407720 337 1
217 eSim Sir what is the assignment need to be submitted in esim after making the connections in received kit 2019-07-27 06:54:51.651565 396 1
218 eSim for ERC error 2019-07-27 06:56:37.208598 366 2
219 eSim error type2 information 2019-07-27 06:57:07.008271 370 1
220 eSim Conflict problem between pin security. 2019-07-27 07:12:28.393149 401 1
221 eSim eSim wkhp 2019 task2 2019-07-27 07:12:58.358460 348 1
222 eSim Multiple item C1(unit1) 2019-07-27 07:14:29.183919 296 1
223 eSim after placing the power flag 2019-07-27 07:17:09.797264 332 1
224 eSim error(5) Power Flag 2019-07-27 07:18:29.326991 363 1
225 eSim Issue with viewing OUT2 2019-07-27 07:23:50.454877 357 1
226 eSim unable to simulate the circuit output 2019-07-27 07:24:30.251264 328 2
227 eSim sir i am unable to simulate please help, getting these errors 2019-07-27 07:26:18.458759 373 1
228 eSim error while simmulation 2019-07-27 07:32:59.726100 330 1
229 eSim During Simulation the below error is showing 2019-07-27 07:36:16.584489 374 1
230 eSim Regarding Astable Vibrator output 2019-07-27 07:37:26.042724 344 1
231 eSim In kicadtongspice conversion, source details are not appearing 2019-07-27 07:39:47.920114 383 1
232 eSim Regarding selection of footprints 2019-07-27 07:41:45.096793 347 1
233 eSim how to solve error 3 2019-07-27 07:48:51.244628 379 2
234 eSim Component values dialog box will not get open 2019-07-27 07:49:21.820368 341 1
235 eSim simulation can't complete 2019-07-27 07:53:31.005871 401 1
236 eSim simulation output is not getting 2019-07-27 07:55:12.865035 391 1
237 eSim python plot ouput missing 2019-07-27 07:57:29.630612 404 1
238 eSim regrading package 2019-07-27 08:09:08.520105 356 1
239 eSim device modelling tab empty 2019-07-27 08:13:47.001300 413 1
240 eSim regarding : Error 2019-07-27 08:13:59.985690 391 1
241 eSim ki-Ng convertion not happening 2019-07-27 08:18:06.119879 371 1
242 eSim Error which doesnot open my project file. 2019-07-27 08:20:51.087470 397 1
243 eSim Error in opening existing project 2019-07-27 08:25:10.709493 359 1
244 eSim not proper output 2019-07-27 08:27:33.691159 383 1
245 eSim convert kicad to ngspice 2019-07-27 08:32:24.536037 388 1
246 eSim error , not able to see source details 2019-07-27 08:47:07.395571 425 1
247 eSim Regarding project files present in virtual machine 2019-07-27 10:36:16.345252 417 1
248 eSim Error while opening Python plotting editor, so unable to simulate 2019-07-28 19:35:48.668071 549 2
249 eSim How to design pcb for multilayer? 2019-07-29 15:22:01.602136 367 1
250 eSim What are the steps design pcb for multilayer? 2019-07-29 15:23:23.971149 355 1
251 eSim How to submit the assignment for esim 2019-07-31 10:00:52.379411 403 1
252 eSim How to submit the coordinator assignment using hardware kit for esim 2019-07-31 10:06:47.659033 463 6
253 eSim When assign simulation parameter in kicad to spice conversion and when click on convert doesn't respond anything.. 2019-08-02 06:51:54.869832 403 1
254 eSim Is it necessary to submit astable multivibrator Gerber file. 2019-08-02 06:58:00.652838 401 2
255 eSim When we will start to registration of other faculty for main workshop which will conduct in our campus. 2019-08-02 07:00:07.974826 506 1
256 eSim it gives python error also while selecting device modeling parameter led library are not there so i choose the diode test1 .lib files 2019-08-02 07:26:29.708040 367 1
257 eSim when i submit the hardware assignment it will not attach my file of zip 1182.rar so what is solution 2019-08-02 11:04:17.089758 406 1
258 eSim IoT simulation 2019-08-04 16:29:54.018510 391 1
259 eSim while converting kicad to ngspice, it is ap[pearing as "Your schematic contain unknown model ne555" 2019-08-06 10:09:43.785682 389 1
260 eSim Input output characteristics of Common emitter configuration 2019-08-12 14:59:06.759082 392 1
261 eSim Ki- Ng conversion is not happening and the plot files .V files are not available after creating .cir file 2019-08-12 17:15:32.885721 342 1
262 eSim how to find input characteristics of BJT CE config 2019-08-16 05:13:20.439119 551 4
263 eSim Source details not appearing 2019-08-25 12:52:08.091071 414 1
264 eSim Errors descriptions and remedies 2019-08-25 20:30:14.888399 370 1
265 eSim Software crash 2019-08-31 09:14:17.197974 401 1
266 eSim facing a problem to install a esim setup 2019-08-31 18:08:51.574660 360 1
267 eSim how to get the transfer characters of JFET or MOSFET 2019-09-05 09:04:34.777592 322 2
268 eSim Urgent: Problem Facing during installation of esim in mint-18 linux OS 2019-09-05 10:33:51.706532 335 3
269 eSim To Draw Overlapped Track on PCB 2019-09-06 07:27:56.779087 317 1
270 eSim how to select IC555 2019-09-09 10:37:34.386509 336 2
271 eSim new spoken tutorials on Astable multivibrator are not appearing 2019-09-11 11:28:34.230886 379 2
272 eSim unable to perform simulation 2019-09-14 11:19:05.884307 361 1
273 eSim Error in kicad to ngspice 2019-09-15 12:05:00.439482 370 3
274 eSim CvPcb error, May be our institute proxy blocking the CvPCb 2019-09-17 03:40:36.146912 341 1
275 eSim Unable to perform simulation for astable multivibrator 2019-09-18 04:42:39.812056 345 1
276 eSim Unable to create new project file 2019-09-18 06:41:28.590613 447 1
277 eSim i am not able to connect wire to components 2019-09-19 10:14:50.571992 327 1
278 eSim Electrical Rule Check 2019-09-20 07:05:08.738635 560 2
279 eSim cVpcb takes long time to open or it keeps loading 2019-09-20 16:00:45.768989 319 1
280 eSim eSim installation issues 2019-09-20 16:06:48.723327 413 1
281 eSim python version 2019-09-21 02:06:13.038380 340 1
282 eSim esim application to electrical engineering 2019-09-21 04:07:11.593224 375 2
283 eSim how to search a specific components for a typical circuit design 2019-09-21 06:00:56.816121 343 1
284 eSim Error occured after simulation 2019-09-21 06:04:08.594767 342 1
285 eSim The project does not contain any Kicad netlist file for conversion. 2019-09-21 06:05:30.570017 382 1
286 eSim Error Message while simulation 2019-09-21 06:16:57.054602 376 2
287 eSim Unable to get DC analysis 2019-09-21 06:28:03.229412 349 1
288 eSim error message occured while simulation 2019-09-21 06:32:54.876310 376 1
289 eSim Unable to shows kicad to ngspice successfully conversion message window 2019-09-21 06:41:06.809498 336 1
290 eSim Error in python plotting 2019-09-21 06:52:13.850637 391 2
291 eSim Different between eSim_NPN and BC547 2019-09-21 07:27:56.669248 400 2
292 eSim Assignment for getting certificate of esim workshop 2019-09-21 08:56:08.135415 388 1
293 eSim Do the participants of the workshop need to upload the results 2019-09-21 09:03:23.859253 341 2
294 eSim REGARDING OUTPUT 2019-09-21 09:30:04.924695 365 6
295 eSim foot prints appropriate for my selected components 2019-09-21 09:51:28.479660 379 1
296 eSim Footprint window open but last column will not be displayed 2019-09-21 10:09:42.418405 348 2
297 eSim Not able to run this software. Tried installing it many times. Could you please help me sort out this issue? 2019-09-21 10:11:40.992504 462 1
298 eSim Connectors for Astable Multivibrator 2019-09-21 10:46:48.356291 420 1
299 eSim Mapping components footprints 2019-11-02 17:02:12.414303 422 2
300 eSim Unable to add library 2019-11-02 17:41:05.817568 417 1
301 eSim how to do AC analysis in eSim 2019-11-27 15:34:59.211198 430 4
302 eSim Error in kicad to ngspice. 2019-12-02 10:40:44.862575 372 1
303 eSim ERROR IN kicadtongspice convertor 2020-01-12 01:17:45.056334 317 1
304 eSim Error in grounding the circuit 2020-01-12 06:02:24.748570 282 1
305 eSim Installation Error in NgSpice 2020-01-13 19:52:02.734163 340 1
306 eSim Astable mutivibrator 2020-01-29 07:49:38.005216 359 1
307 eSim Reagrding adding AC source 2020-01-29 08:08:16.538124 393 1
308 eSim Astable Multivibrator using 555 timer 2020-01-30 06:12:26.262280 353 1
309 eSim Regarding potentiometer 2020-01-30 12:27:39.283649 329 1
310 eSim LM2596 component no present 2020-02-09 06:50:27.475038 323 1
311 eSim NOT ABLE TO REGISTER AND SUBMIT 2020-02-16 10:07:52.732011 408 1
312 eSim NsSpice plot not working 2020-02-20 05:13:40.233908 336 1
313 eSim I am trying to use a transformer in a circuit but error in esim simulation 2020-02-26 11:28:33.595119 324 2
314 eSim How to build/make an IC in eSim so it can be used in schematic via place component option? 2020-02-27 06:08:28.231968 357 2
315 eSim plot error in esim 2020-03-02 09:58:18.236229 357 1
316 eSim how to open esim 2020-03-03 16:17:59.032406 377 1
317 eSim problem esim-2.0 on ubuntu 18.04 2020-04-02 12:55:26.976863 344 2
318 eSim New installation procedure 2020-04-08 09:04:22.904370 335 1
319 eSim Where to find library of most devices 2020-04-08 16:54:22.844775 302 1
320 eSim how to save a subckt 2020-04-10 06:31:47.008152 300 1
321 eSim project nsme 2020-04-15 07:09:29.158861 261 1
322 eSim Circuit simulation project- PCB design 2020-04-16 10:12:01.705113 271 1
323 eSim Critical Path Delay 2020-04-17 12:43:09.267972 270 1
324 eSim reference designator for Mosfet in subcircuit 2020-05-05 21:58:02.611426 260 1
325 eSim Boost converter switch 2020-05-10 19:15:27.564241 285 2
326 eSim voltage regulator 2020-05-12 13:57:51.937135 287 1
327 eSim Too few parameters 2020-05-15 08:13:03.819163 300 44
328 eSim how to get LM 741 2020-05-17 13:20:52.756765 255 1
329 eSim non conduction of SCR 2020-05-28 17:24:17.898603 222 1
330 eSim non conduction of bottom SCR 2020-05-28 17:27:36.119899 240 1
331 eSim unable to install eSim 2.0 on ubuntu 20.04LTL 2020-06-09 19:36:57.599078 210 1
332 eSim Devies in filter 2020-06-11 02:50:47.998425 235 2
333 eSim unable to install eSim 2.0 on ubuntu 20.04LTS 2020-06-11 04:53:11.564766 281 1
334 eSim eSim devices 2020-06-12 03:06:52.871092 229 1
335 eSim Invert the signal 2020-06-12 10:22:15.832927 214 1
336 eSim Inbuild project 2020-06-12 12:30:10.082544 223 1
337 eSim Esim doesnt start - gives error message related to ZLIB_1.2.9 on Ubuntu 18.04.4 2020-06-27 09:07:39.855864 240 3
338 eSim Under "Device Modeling" Tab for Kicad to Ngspice conversion, what kinds of files are uploaded for the component? 2020-06-28 03:33:19.136302 208 1
339 eSim Why there is a need of PWR_FLAG? 2020-06-28 03:35:16.420242 206 1
340 eSim Footprint library 2020-06-29 05:11:37.156565 204 2
341 eSim Unable to open schematic 2020-07-09 04:25:22.575840 207 3
342 eSim foot print layout for PCB design 2020-07-09 05:33:49.929542 194 2
343 eSim foot print layout for PCB designing for 7805voltage reggulator 2020-07-10 15:22:33.814971 218 2
344 eSim Opening schematic for a new project 2020-07-14 04:03:13.524660 208 1
345 eSim Error while installing Esim 2020-07-19 15:32:17.169491 181 1
346 eSim eSim ouput filtering 2020-08-08 06:37:38.577058 141 1
347 eSim Conflict between sources 2020-08-08 06:39:36.383061 144 1
348 eSim Not Working on Ubuntu 18.04LTS 2020-08-08 13:59:52.834935 155 1
349 eSim Regarding components (quartz crystal) 2020-08-09 10:01:09.289895 146 2
350 eSim ERC ErrrType (3) 2020-08-13 18:43:34.166649 137 1
351 eSim Error( unknoen model) 2020-08-14 19:26:34.734936 145 1
352 eSim Half wave rectifier 2020-08-20 09:18:59.988998 141 1
353 eSim About eSim AC source parameter setting 2020-08-23 03:56:31.555488 162 1
354 eSim Adding a Library 2020-09-12 07:09:17.525834 106 1
355 eSim Iam not able to connect the wire between some components in kicad editor...but I can with some components..plz tell me what is the problem and rectify it 2020-09-21 12:59:26.378649 85 3
356 eSim unable to create new project 2020-09-23 09:02:27.975608 75 1
357 eSim About global label error 2020-09-23 09:55:38.152392 66 1
358 eSim nghdl installation 2020-09-24 12:05:38.747367 97 5
359 eSim unable to read analysis file 2020-09-29 06:34:15.913380 87 2
360 eSim may i know how to calculate the current 2020-10-03 15:01:08.470194 61 3
361 eSim About model parameters 2020-10-05 08:24:26.227606 55 1
362 eSim regarding ac source 2020-10-05 12:44:56.663312 44 1
363 eSim transistor Region 2020-10-08 07:13:08.462635 44 1
364 eSim about kicad netlist query 2020-10-10 14:38:32.295682 43 1
365 eSim can we 10bit adc simulations with opensource PDK? 2020-10-11 18:10:26.184263 39 1
366 eSim about transistor operating region 2020-10-14 15:13:41.831091 43 2
367 eSim ngspice error 2020-10-15 04:32:53.969977 49 3
368 eSim about uncox and pcox of mosfet 2020-10-15 14:35:20.272561 35 2
369 eSim installition problem 2020-10-19 12:08:56.574322 28 1